Regional Weather Roundup
Issued by NWS

Home | Current Version | Previous Version | Graphics & Text | Print | Product List | Glossary On
Versions: 1 2 3 4 5 6 7 8 9 10 11 12 13 14 15 16 17 18 19 20 21 22 23 24 25 26 27 28 29 30 31 32 33 34 35 36 37 38 39 40 41 42 43 44 45 46 47 48 49 50
000
ASUS45 KCYS 050110
RWRWY

WYOMING REGIONAL WEATHER ROUNDUP
NATIONAL WEATHER SERVICE CHEYENNE WY
600 PM MST WED MAR 04 2015

NOTE:  "FAIR" INDICATES FEW OR NO CLOUDS BELOW 12,000 FEET
WITH NO SIGNIFICANT WEATHER AND/OR OBSTRUCTIONS TO VISIBILITY.

WYZ001-050200-
YELLOWSTONE NATIONAL PARK

CITY           SKY/WX    TMP DP  RH WIND       PRES   REMARKS
LK YELLOWSTONE   N/A     16  -4  41 VRB3      30.08R
W YELLOWSTONE  NOT AVBL

$$
WYZ002>013-054>058-071-098>099-050200-
NORTHERN WYOMING

CITY           SKY/WX    TMP DP  RH WIND       PRES   REMARKS
JACKSON        CLEAR     18   1  49 VRB5      30.13R WCI  11
CODY           FAIR      19   7  58 E8        30.06S WCI   9
GREYBULL       FAIR      22   3  44 SE7       30.15S WCI  13
WORLAND        FAIR      20   7  57 SE6       30.14S WCI  12
SHERIDAN       FAIR       6  -3  66 CALM      30.11F
BUFFALO        FAIR      16   1  51 S10       30.07S WCI   4
GILLETTE       FAIR      11   2  67 NW5       30.11S WCI   3
HULETT         FAIR      12  -4  48 SW5       30.13S WCI   4
NEWCASTLE      FAIR      14  -4  44 N7        30.15S WCI   4

$$
WYZ014>020-022>026-101>103-050200-
CENTRAL WYOMING

CITY           SKY/WX    TMP DP  RH WIND       PRES   REMARKS
BIG PINEY      FAIR      24   2  38 N10       30.10R WCI  14
PINEDALE       FAIR      18   1  49 W13       30.09R WCI   4
DUBOIS         FAIR      19   0  42 NW16      30.02R WCI   5
LANDER         FAIR       9   3  77 CALM      30.09S
RIVERTON       FAIR       7  -1  70 E5        30.10S WCI  -2
CASPER         FAIR      10   0  63 SW12      30.11R WCI  -5
DOUGLAS        FAIR       8  -1  66 N9        30.12R WCI  -5

$$
WYZ021-027>030-104>119-050200-
SOUTHERN WYOMING

CITY           SKY/WX    TMP DP  RH WIND       PRES   REMARKS
EVANSTON       FAIR      22  11  62 W12       30.16R WCI  10
FORT BRIDGER   FAIR      25  13  61 W21       30.16R WCI  11
ROCK SPRINGS   FAIR      19   9  65 SW12      30.09R WCI   7
DIXON          FAIR      18   5  56 E5        30.18R WCI  11
RAWLINS        FAIR      10   1  67 CALM      30.10R
SARATOGA       FAIR       5   0  78 W7        30.11R WCI  -7
LARAMIE        FAIR       3  -5  69 W8        30.02R WCI -10
CHEYENNE       FAIR      15  -6  39 NW8       30.07R WCI   4
TORRINGTON     FAIR      19   2  47 NW8       30.16R WCI   9
PINE BLUFFS    FAIR      18   0  45 NW6       30.13R WCI   9

$$


USA.gov is the U.S. government's official web portal to all federal, state and local government web resources and services.